Wind_Speed
10 11 11 11 12 14 15 16 17 18 19 21 22 23 25 26 28 29 31 33 35 36 37 39 40 41 41 41 42 42 42 42 42 42 41 41 41 40 40 39 40 40 41 41
9 11 12 12 13 15 17 18 18 19 22 23 23 24 25 27 28 30 31 34 36 37 39 40 41 41 42 42 43 43 43 43 43 42 42 41 41 40 40 40 40 40 40 40
9 11 11 12 13 14 16 17 19 20 22 23 24 25 25 27 28 30 32 34 37 39 40 40 41 42 42 43 44 44 44 44 43 43 42 41 41 40 40 40 40 40 40 40
11 11 12 11 12 14 16 18 19 20 22 24 25 25 25 27 29 31 33 35 38 39 40 41 41 42 43 43 44 45 45 45 44 43 42 41 41 40 40 40 40 40 39 39
13 13 12 13 13 15 18 19 20 22 24 25 26 26 26 28 30 32 34 36 38 40 40 41 41 42 43 44 45 45 45 45 45 44 42 41 41 41 41 41 40 39 39 38
14 13 12 11 14 17 19 20 21 23 24 25 27 27 28 30 32 34 36 37 39 40 40 41 41 42 43 44 45 46 45 45 45 44 42 41 41 41 41 40 39 38 38 38
16 16 16 16 18 20 22 23 23 23 24 25 26 27 29 30 32 34 37 38 39 40 40 41 41 42 43 44 45 46 46 45 45 44 43 42 41 41 41 40 39 38 37 36
21 22 22 22 23 23 23 23 23 23 23 24 26 27 29 31 33 35 37 38 39 40 40 41 41 42 44 44 46 46 47 46 45 44 43 42 41 41 41 40 38 37 36 35
24 24 24 24 25 24 24 23 23 23 23 25 27 29 30 33 35 36 38 39 39 40 40 41 41 42 44 45 46 46 47 46 45 44 42 42 41 40 40 39 37 36 35 33
27 27 26 25 25 25 24 23 23 23 24 26 28 30 32 34 36 38 39 39 39 40 40 41 41 42 44 45 46 46 46 45 44 43 42 41 41 40 40 39 36 34 34 31
27 27 26 25 25 25 25 25 25 25 25 27 30 32 34 36 38 39 39 39 39 39 40 40 41 42 44 45 45 46 46 45 44 43 41 41 40 40 39 38 36 33 31 30
28 27 27 26 27 27 27 27 27 28 28 29 31 34 36 38 39 39 39 39 39 40 40 41 42 43 44 45 46 46 45 45 43 42 41 40 39 39 38 37 35 32 30 28
28 27 28 29 29 29 29 30 31 31 32 33 34 35 37 39 40 40 40 39 40 40 41 41 42 43 44 45 45 45 44 44 43 41 40 39 39 38 37 36 33 31 29 27
28 28 29 30 32 32 32 33 34 34 35 36 37 37 38 39 40 40 40 40 40 40 41 42 43 43 44 44 45 44 44 43 42 40 38 38 38 37 36 34 32 28 27 25
29 29 30 32 33 34 35 35 36 36 37 38 39 39 39 39 40 41 41 41 41 42 42 42 43 44 44 44 43 43 43 42 41 39 37 37 37 36 35 33 31 28 26 24
30 31 32 33 34 35 36 37 38 39 39 40 40 41 41 40 41 42 43 42 42 43 43 43 43 43 43 43 43 42 42 41 39 38 36 35 35 35 33 31 30 27 25 22
31 32 34 35 36 37 38 39 40 41 42 42 42 42 43 43 43 45 45 44 44 44 45 44 43 42 42 43 42 41 40 39 38 36 35 33 33 32 31 30 28 26 24 21
35 36 38 39 40 41 42 43 43 44 44 44 44 44 45 46 46 47 47 46 46 46 46 44 43 42 42 42 41 39 38 38 37 35 33 32 31 30 29 28 27 25 23 21
39 40 41 43 43 44 45 45 46 47 47 48 49 48 48 50 50 50 50 48 48 48 47 45 44 43 42 41 39 37 37 36 35 33 31 30 28 27 26 26 26 25 22 21
43 43 44 45 46 46 47 47 48 49 50 52 51 51 52 53 53 52 51 50 49 48 46 45 44 42 40 38 37 35 34 34 33 31 29 27 26 25 24 24 24 23 22 21
46 47 47 47 48 49 50 52 53 53 54 53 54 54 55 55 54 53 51 50 49 47 46 44 42 40 38 37 35 34 33 32 30 29 27 25 23 22 21 22 22 21 21 21
49 49 50 51 52 53 55 56 57 57 57 57 58 58 57 55 54 53 51 49 47 46 44 41 40 38 37 35 34 32 31 29 28 26 25 23 21 20 19 18 19 19 19 20
51 51 53 54 56 57 58 58 59 59 59 59 59 58 57 55 53 52 49 47 45 43 41 40 38 36 35 33 32 30 28 27 25 24 23 21 19 18 16 16 16 17 17 18
54 55 57 58 59 60 60 60 60 60 59 58 58 56 55 53 51 48 46 44 42 40 39 38 35 34 33 31 29 28 26 25 23 22 21 19 17 15 14 13 13 14 15 16
59 60 60 61 61 62 62 61 61 60 59 57 56 54 52 49 47 44 42 40 38 37 36 34 32 31 30 28 27 25 24 23 22 20 18 17 15 13 11 11 11 12 13 13
64 64 64 63 63 63 62 61 59 58 56 54 52 50 47 45 43 40 38 37 35 34 32 30 29 28 26 25 24 23 22 21 20 18 17 15 13 11 9 8 9 9 10 10
66 66 66 65 64 63 62 60 58 56 53 51 48 45 42 40 38 37 35 34 33 31 29 29 28 26 25 24 23 21 20 19 19 17 15 14 12 10 8 7 7 6 6 7
Wind_Direction
306 304 303 301 303 308 316 320 324 331 337 337 335 333 331 329 328 327 327 327 327 326 327 329 330 331 332 332 331 331 330 328 326 324 321 319 316 313 311 308 305 301 298 294
306 302 301 300 301 302 309 314 322 330 332 329 328 327 328 327 325 325 325 325 325 326 328 329 331 331 332 332 332 332 331 330 328 326 323 321 318 316 313 310 307 304 300 297
318 308 306 296 296 300 307 315 323 326 325 322 321 323 324 323 322 323 325 325 326 328 329 330 331 332 332 333 333 333 333 332 329 327 325 323 321 319 316 314 311 308 304 301
322 317 312 307 301 303 306 314 321 320 318 318 318 319 321 322 323 324 325 326 327 329 330 331 332 333 333 334 334 334 334 333 331 329 327 325 323 322 320 318 315 312 309 305
322 318 316 317 311 308 310 317 320 319 318 318 318 320 323 324 324 324 325 327 328 330 331 331 333 333 334 334 335 335 335 334 332 331 329 327 326 325 323 322 319 316 312 308
319 321 322 324 314 313 315 319 320 320 320 319 320 322 323 323 323 324 326 327 328 329 330 331 333 334 334 335 336 336 335 334 334 332 331 330 329 328 327 325 323 320 317 314
320 322 323 322 318 319 321 321 320 320 319 318 317 319 321 321 322 324 326 327 328 329 330 331 332 333 334 336 337 337 337 336 335 334 333 332 331 331 330 329 326 324 322 320
315 316 316 317 318 320 320 319 318 316 315 314 316 318 319 321 322 324 325 326 327 328 329 330 331 333 334 336 337 337 338 337 336 335 334 334 333 333 333 332 330 329 328 327
303 306 310 314 316 316 316 315 314 313 314 314 315 317 319 321 322 323 325 326 327 328 328 329 331 332 334 336 337 338 338 338 337 336 336 336 336 335 336 335 333 333 333 332
298 302 307 310 311 311 312 312 312 312 313 313 314 316 318 320 321 323 324 325 326 327 328 330 331 332 334 336 337 338 338 338 338 338 338 338 338 338 338 338 337 336 337 338
293 299 303 306 306 306 308 309 310 310 311 313 314 316 317 319 320 322 323 325 326 327 328 330 332 333 334 336 337 338 339 338 338 339 339 340 340 340 341 340 340 340 341 342
292 298 300 302 302 302 305 307 308 309 310 312 313 314 315 317 319 322 323 324 326 328 329 330 331 332 334 335 337 338 339 339 339 339 340 341 342 342 342 342 343 343 344 346
292 296 297 298 298 301 303 305 306 307 309 311 312 313 314 316 318 321 323 324 326 327 329 330 331 332 333 335 336 337 338 339 339 339 340 342 343 344 344 344 345 346 347 349
288 291 291 292 294 297 299 301 302 305 307 309 311 312 314 315 317 319 321 323 325 326 328 329 330 331 332 334 335 336 338 338 339 340 340 342 344 346 346 347 348 348 349 352
285 285 286 288 291 293 296 298 300 303 306 308 310 311 312 313 315 317 319 322 324 325 326 327 328 329 331 332 333 334 336 338 338 339 340 342 344 347 348 350 351 351 351 353
283 283 285 287 289 292 294 298 301 303 305 307 308 308 309 310 311 313 316 318 321 322 323 324 324 326 328 330 331 333 335 336 338 339 340 341 344 346 349 352 353 354 354 355
283 283 285 287 289 291 294 297 300 302 304 305 306 307 307 308 309 311 313 315 316 317 319 319 321 323 325 327 329 330 333 335 337 338 339 341 343 346 350 352 354 355 355 357
284 283 284 286 288 290 292 295 298 300 302 303 304 305 305 306 307 309 310 311 312 313 314 315 317 319 322 324 326 327 330 332 334 337 338 340 342 347 351 354 356 357 359 359
280 280 281 284 287 288 289 291 295 297 299 300 300 301 302 303 305 306 307 308 308 309 311 312 313 315 318 321 323 325 327 330 332 335 336 339 342 347 351 355 358 0 1 2
278 279 280 281 284 286 285 286 289 292 294 295 295 296 299 301 302 304 305 304 305 306 307 309 311 312 314 317 319 322 326 328 331 333 335 338 341 346 350 354 359 3 4 5
278 279 280 281 281 282 283 284 286 288 289 289 291 293 295 297 299 300 301 301 302 303 304 305 307 309 311 314 316 319 322 326 329 331 333 336 340 344 350 354 359 3 7 9
281 281 281 280 280 281 281 282 284 286 287 288 289 291 292 294 296 297 298 298 298 298 299 301 303 304 307 309 312 316 319 323 327 329 331 334 338 342 348 354 360 6 9 12
282 281 280 279 279 279 280 281 283 285 286 287 289 290 291 292 293 294 295 295 294 294 294 296 298 300 303 305 309 313 315 320 324 327 329 331 334 339 346 352 359 6 10 13
280 279 278 278 279 280 280 281 282 283 284 285 287 288 289 290 291 292 292 291 290 289 289 290 291 294 297 301 305 308 311 315 320 323 325 328 331 336 343 349 356 4 10 15
278 278 278 279 279 280 281 282 283 283 284 285 286 287 287 288 288 288 288 287 286 285 285 285 286 288 292 295 299 303 306 309 314 317 319 322 326 329 335 344 354 5 12 18
282 282 283 283 283 283 283 283 284 284 285 285 285 286 285 285 284 283 282 281 281 281 280 279 281 282 286 291 294 297 300 305 308 311 313 315 318 318 321 330 342 356 8 17
284 284 285 285 285 285 285 285 285 285 285 284 284 283 282 281 279 278 277 276 277 277 276 276 278 278 282 284 287 291 295 299 302 304 306 307 309 308 305 309 320 337 355 11
Height
5860 5859 5857 5856 5855 5853 5851 5850 5848 5846 5843 5841 5838 5835 5832 5828 5824 5820 5816 5811 5806 5800 5794 5787 5780 5772 5764 5756 5748 5740 5732 5724 5716 5709 5701 5693 5686 5679 5672 5666 5660 5654 5649 5644
5858 5856 5855 5854 5853 5851 5849 5847 5845 5843 5841 5838 5836 5833 5829 5825 5821 5816 5812 5807 5801 5795 5788 5781 5773 5765 5758 5750 5742 5733 5725 5716 5708 5700 5692 5684 5677 5669 5662 5655 5648 5642 5636 5631
5855 5854 5853 5852 5850 5848 5846 5844 5843 5841 5839 5835 5832 5829 5826 5821 5817 5812 5807 5802 5795 5789 5781 5774 5766 5759 5751 5743 5734 5726 5717 5708 5700 5692 5683 5675 5667 5659 5652 5644 5637 5630 5623 5617
5852 5852 5850 5851 5847 5845 5843 5842 5840 5837 5834 5831 5828 5825 5822 5817 5812 5807 5802 5796 5789 5782 5775 5767 5760 5752 5744 5736 5727 5719 5710 5701 5692 5683 5675 5666 5658 5650 5642 5634 5626 5618 5611 5604
5849 5847 5846 5846 5844 5842 5840 5838 5836 5833 5829 5825 5822 5819 5816 5811 5807 5802 5796 5790 5783 5776 5769 5761 5753 5746 5737 5729 5720 5711 5702 5693 5684 5676 5667 5658 5649 5641 5632 5624 5615 5607 5599 5592
5846 5844 5843 5843 5840 5837 5836 5833 5831 5828 5824 5820 5816 5813 5810 5805 5801 5796 5790 5783 5777 5769 5762 5755 5747 5739 5731 5723 5714 5705 5695 5686 5677 5668 5659 5650 5641 5632 5623 5614 5605 5597 5588 5580
5842 5840 5839 5838 5835 5833 5832 5830 5826 5823 5819 5815 5812 5809 5805 5800 5795 5789 5784 5777 5770 5763 5756 5749 5741 5733 5725 5716 5707 5698 5688 5679 5669 5660 5651 5642 5633 5624 5615 5606 5597 5588 5579 5570
5837 5836 5836 5833 5830 5829 5827 5823 5820 5817 5814 5810 5806 5803 5798 5794 5789 5783 5778 5771 5764 5757 5749 5742 5734 5727 5718 5710 5701 5691 5682 5672 5662 5653 5644 5635 5625 5616 5607 5597 5588 5579 5570 5561
5834 5833 5830 5827 5825 5823 5820 5818 5815 5811 5808 5804 5801 5797 5792 5788 5783 5777 5771 5765 5758 5751 5743 5736 5728 5720 5712 5703 5694 5685 5675 5665 5656 5646 5637 5628 5619 5610 5600 5590 5581 5572 5563 5554
5827 5826 5824 5822 5819 5817 5814 5812 5809 5806 5803 5799 5795 5791 5787 5782 5776 5771 5764 5758 5751 5744 5737 5729 5722 5714 5706 5697 5688 5679 5669 5660 5650 5641 5631 5622 5613 5603 5594 5584 5575 5566 5558 5549
5822 5820 5818 5816 5813 5811 5808 5805 5803 5800 5797 5793 5789 5785 5780 5775 5769 5763 5757 5751 5744 5738 5730 5723 5715 5708 5699 5691 5682 5673 5663 5654 5644 5635 5626 5617 5608 5598 5589 5580 5570 5562 5554 5545
5815 5814 5811 5809 5806 5803 5801 5798 5796 5793 5790 5787 5783 5778 5773 5767 5762 5756 5750 5744 5738 5731 5724 5717 5709 5701 5693 5685 5676 5667 5658 5649 5640 5631 5621 5613 5603 5594 5584 5576 5567 5558 5550 5543
5808 5806 5804 5801 5798 5796 5793 5791 5788 5785 5783 5779 5775 5771 5765 5760 5754 5749 5743 5737 5730 5724 5717 5710 5703 5695 5688 5679 5671 5662 5653 5644 5635 5626 5617 5609 5600 5591 5582 5573 5564 5556 5549 5542
5800 5798 5796 5793 5791 5788 5786 5783 5780 5777 5774 5771 5767 5763 5758 5752 5746 5741 5735 5729 5723 5717 5710 5704 5696 5689 5682 5674 5665 5657 5648 5639 5631 5622 5614 5605 5596 5588 5579 5571 5563 5555 5548 5541
5792 5790 5788 5785 5783 5780 5777 5774 5771 5769 5765 5762 5758 5753 5749 5744 5738 5733 5727 5721 5715 5709 5703 5697 5690 5683 5676 5668 5660 5652 5644 5635 5627 5618 5610 5602 5594 5585 5577 5569 5561 5554 5547 5541
5784 5781 5779 5776 5774 5771 5768 5765 5762 5759 5755 5752 5748 5743 5739 5734 5729 5724 5719 5713 5708 5702 5696 5689 5683 5676 5669 5662 5655 5647 5639 5631 5623 5615 5607 5600 5592 5584 5576 5568 5561 5554 5547 5541
5774 5771 5769 5767 5764 5761 5759 5756 5753 5749 5746 5742 5738 5734 5729 5724 5719 5714 5709 5704 5699 5694 5688 5682 5676 5669 5663 5656 5649 5642 5634 5627 5619 5612 5604 5597 5590 5582 5575 5568 5561 5554 5548 5542
5762 5760 5758 5756 5753 5751 5748 5745 5742 5739 5735 5732 5728 5723 5719 5714 5709 5705 5700 5695 5690 5685 5679 5674 5668 5662 5656 5650 5643 5637 5630 5623 5616 5609 5602 5595 5588 5581 5574 5567 5561 5554 5548 5543
5750 5748 5745 5743 5741 5739 5736 5733 5730 5727 5723 5720 5716 5712 5708 5703 5699 5694 5690 5685 5680 5675 5670 5665 5659 5654 5649 5643 5637 5631 5625 5618 5612 5605 5599 5593 5586 5580 5574 5567 5561 5555 5549 5543
5738 5736 5734 5731 5729 5726 5723 5720 5717 5714 5711 5707 5703 5699 5695 5692 5687 5683 5678 5674 5669 5664 5660 5655 5651 5646 5641 5636 5631 5625 5620 5614 5608 5602 5596 5591 5585 5579 5573 5568 5562 5556 5550 5545
5725 5723 5721 5719 5716 5713 5710 5706 5703 5700 5697 5693 5690 5686 5682 5679 5675 5671 5667 5663 5658 5654 5649 5646 5642 5637 5633 5629 5624 5619 5614 5609 5604 5598 5593 5588 5583 5578 5573 5568 5563 5557 5552 5547
5711 5709 5706 5703 5701 5698 5694 5691 5687 5684 5681 5678 5675 5671 5668 5665 5661 5658 5654 5651 5646 5642 5639 5635 5632 5629 5625 5621 5617 5613 5609 5605 5600 5595 5590 5586 5581 5577 5572 5568 5564 5559 5554 5549
5694 5692 5689 5686 5683 5680 5678 5674 5671 5668 5665 5662 5659 5656 5653 5650 5646 5643 5641 5638 5634 5630 5627 5625 5622 5619 5617 5614 5610 5607 5603 5600 5595 5591 5587 5583 5580 5576 5572 5568 5565 5561 5556 5552
5675 5672 5669 5666 5663 5661 5659 5656 5653 5651 5648 5645 5642 5639 5637 5634 5632 5629 5626 5623 5621 5618 5615 5613 5612 5610 5608 5605 5603 5600 5597 5594 5591 5588 5584 5581 5577 5574 5571 5568 5565 5562 5558 5554
5654 5651 5649 5646 5643 5641 5639 5636 5634 5632 5630 5628 5625 5623 5620 5618 5616 5614 5612 5609 5607 5606 5604 5602 5601 5600 5599 5597 5595 5593 5591 5589 5586 5584 5581 5578 5575 5572 5570 5567 5565 5562 5559 5556
5631 5629 5627 5625 5622 5620 5618 5616 5614 5613 5611 5609 5607 5605 5604 5602 5601 5599 5597 5596 5594 5593 5593 5592 5591 5590 5590 5589 5588 5586 5585 5583 5581 5579 5577 5575 5573 5570 5568 5566 5564 5563 5560 5558
5610 5607 5604 5602 5600 5598 5596 5595 5594 5593 5591 5590 5590 5589 5588 5587 5586 5585 5584 5583 5582 5582 5582 5582 5581 5581 5581 5581 5580 5579 5578 5577 5576 5574 5573 5571 5569 5568 5566 5565 5564 5562 5561 5559